When you browse on this site, cookies collect data to enhance your experience and personalize the content and advertising you see.
Visit our Privacy Policy to learn more. By continuing to use the site, you agree to this use of cookies and data.
  • In Latvia
  • List of Countries
  • For 7 days
  • Water Temperature
  • Satellite Maps
  • Weather Map
  • Weather Widgets
  • user-avatar
    Login

    Hourly Weather Lozenec

    Today, 21 November, Wednesday

    Time Temperature Precipitation Wind Pressure Humidity
    00:00 +10°C° 0.5 mm 4 mps 761 mmHg 97%
    01:00 +11°C° 0.5 mm 4 mps 760 mmHg 97%
    02:00 +11°C° 0.5 mm 4 mps 760 mmHg 97%
    03:00 +11°C° 0.5 mm 4 mps 759 mmHg 97%
    04:00 +11°C° 0.5 mm 4 mps 759 mmHg 97%
    05:00 +12°C° 0.5 mm 4 mps 758 mmHg 97%
    06:00 +12°C° 0.5 mm 4 mps 758 mmHg 97%
    07:00 +12°C° 0.5 mm 5 mps 758 mmHg 97%
    08:00 +12°C° 0.5 mm 5 mps 757 mmHg 97%
    09:00 +13°C° 0.4 mm 5 mps 757 mmHg 93%
    10:00 +14°C° 0.4 mm 5 mps 757 mmHg 88%
    11:00 +15°C° 0.4 mm 5 mps 756 mmHg 84%
    12:00 +15°C° 0.5 mm 5 mps 756 mmHg 86%
    13:00 +15°C° 0.5 mm 5 mps 756 mmHg 88%
    14:00 +15°C° 0.5 mm 5 mps 755 mmHg 90%
    15:00 +14°C° 1.1 mm 5 mps 755 mmHg 92%
    16:00 +14°C° 1.1 mm 4 mps 755 mmHg 93%
    17:00 +13°C° 1.1 mm 4 mps 755 mmHg 95%
    18:00 +13°C° 1 mm 4 mps 755 mmHg 95%
    19:00 +13°C° 1 mm 4 mps 756 mmHg 95%
    20:00 +13°C° 1 mm 4 mps 756 mmHg 95%
    21:00 +13°C° 1.5 mm 5 mps 756 mmHg 95%
    22:00 +13°C° 1.5 mm 6 mps 756 mmHg 96%
    23:00 +12°C° 1.5 mm 7 mps 757 mmHg 96%

    Tomorrow, 22 November, Thursday

    Time Temperature Precipitation Wind Pressure Humidity
    00:00 +12°C° 1.8 mm 7 mps 757 mmHg 95%
    01:00 +11°C° 1.8 mm 7 mps 757 mmHg 95%
    02:00 +11°C° 1.8 mm 8 mps 757 mmHg 95%
    03:00 +11°C° 1.3 mm 8 mps 757 mmHg 94%
    04:00 +10°C° 1.3 mm 8 mps 758 mmHg 94%
    05:00 +10°C° 1.3 mm 8 mps 758 mmHg 94%
    06:00 +10°C° 1.4 mm 9 mps 758 mmHg 93%
    07:00 +10°C° 1.4 mm 9 mps 759 mmHg 93%
    08:00 +9°C° 1.4 mm 10 mps 759 mmHg 93%
    09:00 +9°C° 0.8 mm 10 mps 760 mmHg 92%
    10:00 +8°C° 0.8 mm 10 mps 760 mmHg 91%
    11:00 +8°C° 0.8 mm 9 mps 761 mmHg 91%
    12:00 +8°C° 0.4 mm 9 mps 761 mmHg 90%
    13:00 +8°C° 0.4 mm 9 mps 761 mmHg 89%
    14:00 +7°C° 0.4 mm 9 mps 761 mmHg 88%
    15:00 +7°C° 0.2 mm 9 mps 762 mmHg 88%
    16:00 +7°C° 0.2 mm 8 mps 762 mmHg 87%
    17:00 +7°C° 0.2 mm 8 mps 763 mmHg 86%
    18:00 +6°C° 0.1 mm 8 mps 763 mmHg 86%
    19:00 +6°C° 0.1 mm 8 mps 763 mmHg 85%
    20:00 +6°C° 0.1 mm 7 mps 764 mmHg 85%
    21:00 +6°C° 0 mm 7 mps 764 mmHg 85%
    22:00 +5°C° 0 mm 7 mps 764 mmHg 85%
    23:00 +5°C° 0 mm 6 mps 765 mmHg 85%

    Day after tomorrow, 23 November, Friday

    Time Temperature Precipitation Wind Pressure Humidity
    00:00 +5°C° 0 mm 6 mps 765 mmHg 85%
    01:00 +4°C° 0 mm 6 mps 765 mmHg 85%
    02:00 +4°C° 0 mm 6 mps 765 mmHg 85%
    03:00 +4°C° 0 mm 6 mps 765 mmHg 84%
    04:00 +3°C° 0 mm 6 mps 766 mmHg 83%
    05:00 +3°C° 0 mm 6 mps 766 mmHg 82%
    06:00 +3°C° 0 mm 5 mps 766 mmHg 81%
    07:00 +3°C° 0 mm 5 mps 766 mmHg 80%
    08:00 +3°C° 0 mm 5 mps 767 mmHg 79%
    09:00 +3°C° 0 mm 5 mps 767 mmHg 74%
    10:00 +5°C° 0 mm 5 mps 767 mmHg 69%
    11:00 +6°C° 0 mm 5 mps 768 mmHg 64%
    12:00 +7°C° 0 mm 5 mps 767 mmHg 63%
    13:00 +7°C° 0 mm 5 mps 767 mmHg 62%
    14:00 +7°C° 0 mm 5 mps 767 mmHg 61%
    15:00 +7°C° 0 mm 5 mps 767 mmHg 66%
    16:00 +6°C° 0 mm 5 mps 767 mmHg 70%
    17:00 +5°C° 0 mm 5 mps 768 mmHg 74%
    18:00 +5°C° 0 mm 5 mps 768 mmHg 76%
    19:00 +5°C° 0 mm 5 mps 768 mmHg 77%
    20:00 +5°C° 0 mm 5 mps 768 mmHg 79%
    21:00 +5°C° 0 mm 5 mps 768 mmHg 80%
    22:00 +5°C° 0 mm 5 mps 768 mmHg 80%
    23:00 +5°C° 0 mm 5 mps 768 mmHg 81%

    24 November, Saturday

    Time Temperature Precipitation Wind Pressure Humidity
    00:00 +5°C° 0 mm 5 mps 768 mmHg 81%
    01:00 +5°C° 0 mm 4 mps 768 mmHg 82%
    02:00 +5°C° 0 mm 4 mps 768 mmHg 82%
    03:00 +4°C° 0 mm 4 mps 768 mmHg 83%
    04:00 +4°C° 0 mm 4 mps 767 mmHg 84%
    05:00 +4°C° 0 mm 4 mps 767 mmHg 86%
    06:00 +4°C° 0 mm 3 mps 767 mmHg 86%
    07:00 +4°C° 0 mm 3 mps 767 mmHg 87%
    08:00 +4°C° 0 mm 3 mps 767 mmHg 87%
    09:00 +5°C° 0 mm 3 mps 767 mmHg 82%
    10:00 +7°C° 0 mm 3 mps 767 mmHg 77%
    11:00 +9°C° 0 mm 3 mps 767 mmHg 72%
    12:00 +9°C° 0 mm 3 mps 766 mmHg 70%
    13:00 +9°C° 0 mm 3 mps 765 mmHg 69%
    14:00 +10°C° 0 mm 3 mps 765 mmHg 67%
    15:00 +9°C° 0 mm 2 mps 765 mmHg 73%
    16:00 +8°C° 0 mm 2 mps 765 mmHg 78%
    17:00 +7°C° 0 mm 2 mps 764 mmHg 83%
    18:00 +8°C° 0 mm 1 mps 764 mmHg 86%
    19:00 +7°C° 0 mm 1 mps 764 mmHg 88%
    20:00 +7°C° 0 mm 1 mps 765 mmHg 90%
    21:00 +6°C° 0 mm 1 mps 764 mmHg 90%
    22:00 +6°C° 0 mm 1 mps 764 mmHg 91%
    23:00 +5°C° 0 mm 0 mps 764 mmHg 91%

    25 November, Sunday

    Time Temperature Precipitation Wind Pressure Humidity
    00:00 +6°C° 0 mm 1 mps 763 mmHg 91%
    01:00 +6°C° 0 mm 1 mps 763 mmHg 90%
    02:00 +6°C° 0 mm 1 mps 763 mmHg 90%
    03:00 +6°C° 0 mm 1 mps 762 mmHg 90%
    04:00 +5°C° 0 mm 1 mps 762 mmHg 90%
    05:00 +5°C° 0 mm 1 mps 762 mmHg 90%
    06:00 +6°C° 0 mm 1 mps 762 mmHg 88%
    07:00 +6°C° 0 mm 1 mps 762 mmHg 87%
    08:00 +6°C° 0 mm 1 mps 762 mmHg 86%
    09:00 +8°C° 0 mm 1 mps 762 mmHg 79%
    10:00 +9°C° 0 mm 1 mps 762 mmHg 72%
    11:00 +10°C° 0 mm 2 mps 761 mmHg 64%
    12:00 +10°C° 0 mm 2 mps 761 mmHg 61%
    13:00 +12°C° 0 mm 2 mps 760 mmHg 58%
    14:00 +13°C° 0 mm 2 mps 760 mmHg 55%
    15:00 +12°C° 0 mm 2 mps 760 mmHg 60%
    16:00 +10°C° 0 mm 2 mps 759 mmHg 65%
    17:00 +9°C° 0 mm 2 mps 759 mmHg 70%
    18:00 +8°C° 0 mm 2 mps 759 mmHg 72%
    19:00 +8°C° 0 mm 2 mps 759 mmHg 75%
    20:00 +7°C° 0 mm 2 mps 759 mmHg 77%
    21:00 +7°C° 0 mm 3 mps 759 mmHg 80%
    22:00 +7°C° 0 mm 3 mps 759 mmHg 83%
    23:00 +7°C° 0 mm 3 mps 758 mmHg 86%

    26 November, Monday

    Time Temperature Precipitation Wind Pressure Humidity
    00:00 +7°C° 0 mm 3 mps 758 mmHg 88%
    01:00 +7°C° 0 mm 3 mps 758 mmHg 89%
    02:00 +7°C° 0 mm 3 mps 757 mmHg 91%
    03:00 +7°C° 0 mm 3 mps 757 mmHg 92%
    04:00 +7°C° 0 mm 3 mps 756 mmHg 92%
    05:00 +7°C° 0 mm 3 mps 756 mmHg 93%
    06:00 +7°C° 0 mm 4 mps 756 mmHg 92%
    07:00 +7°C° 0 mm 4 mps 756 mmHg 91%
    08:00 +8°C° 0 mm 4 mps 756 mmHg 90%
    09:00 +10°C° 0.1 mm 4 mps 755 mmHg 86%
    10:00 +10°C° 0.1 mm 5 mps 755 mmHg 82%
    11:00 +12°C° 0.1 mm 5 mps 755 mmHg 78%
    12:00 +12°C° 0.1 mm 5 mps 754 mmHg 79%
    13:00 +12°C° 0.1 mm 5 mps 754 mmHg 80%
    14:00 +12°C° 0.1 mm 5 mps 753 mmHg 81%
    15:00 +12°C° 0.7 mm 5 mps 753 mmHg 82%
    16:00 +11°C° 0.7 mm 6 mps 753 mmHg 83%
    17:00 +11°C° 0.7 mm 6 mps 753 mmHg 85%
    18:00 +12°C° 0.4 mm 7 mps 753 mmHg 87%
    19:00 +12°C° 0.4 mm 7 mps 752 mmHg 89%
    20:00 +12°C° 0.4 mm 7 mps 752 mmHg 91%
    21:00 +13°C° 0.6 mm 6 mps 752 mmHg 91%
    22:00 +13°C° 0.6 mm 6 mps 752 mmHg 91%
    23:00 +13°C° 0.6 mm 5 mps 752 mmHg 92%
    Show more